Tracking 31027 objects as of 19-Jul-2025
HD Live streaming from Space Station
objects crossing your sky now

OPS 4682 DEB

Track OPS 4682 DEB now!
10-day predictions


NORAD ID: 38444
Int'l Code: 1965-027EZ
Perigee: 1,265.1 km
Apogee: 1,303.4 km
Inclination: 90.2 °
Period: 111.1 minutes
Semi major axis: 7655 km
RCS: 0.0103 m2 (small)
Launch date: April 3, 1965
Source: United States (US)
Launch site: AIR FORCE WESTERN TEST RANGE (AFWTR)

Note: This is SATELLITE DEBRIS
Your satellite tracking list
FENGYUN 1C DEB
Track 1 satellite(s)




NASA's NSSDC Master Catalog

Two Line Element Set (TLE):
1 38444U 65027EZ  25198.71085972 -.00000144  00000-0 -52937-3 0  9997
2 38444  90.2420   2.4535 0024958 348.4148  11.6395 12.96176508591095
Source of the keplerian elements: AFSPC